Time,TemperatureF,DewpointF,PressureIn,WindDirection,WindDirectionDegrees,WindSpeedMPH,WindSpeedGustMPH,Humidity,HourlyPrecipIn,Conditions,Clouds,dailyrainin,SoftwareType,DateUTC
2013-05-23 00:02:00,67.4,60.3,29.41,West,273,11.0,11.0,78,0.00,,,0.29,Wunderground v.1.15,2013-05-23 04:02:00,
2013-05-23 00:07:00,67.4,60.3,29.41,West,267,11.0,12.0,78,0.00,,,0.00,Wunderground v.1.15,2013-05-23 04:07:00,
2013-05-23 00:16:00,67.2,60.1,29.42,WSW,257,13.0,15.0,78,0.00,,,0.00,Wunderground v.1.15,2013-05-23 04:16:00,
2013-05-23 00:21:00,67.3,59.8,29.42,West,265,15.0,15.0,77,0.00,,,0.00,Wunderground v.1.15,2013-05-23 04:21:00,
2013-05-23 00:26:00,67.0,59.9,29.41,West,263,16.0,19.0,78,0.00,,,0.00,Wunderground v.1.15,2013-05-23 04:26:00,
2013-05-23 00:32:00,66.7,60.0,29.41,SW,230,17.0,19.0,79,0.00,,,0.00,Wunderground v.1.15,2013-05-23 04:32:00,
2013-05-23 00:37:00,66.5,60.1,29.41,WSW,251,17.0,19.0,80,0.00,,,0.00,Wunderground v.1.15,2013-05-23 04:37:00,
2013-05-23 00:42:00,66.3,59.9,29.41,WSW,258,17.0,17.0,80,0.00,,,0.00,Wunderground v.1.15,2013-05-23 04:42:00,
2013-05-23 00:47:00,66.2,59.8,29.41,West,270,17.0,18.0,80,0.00,,,0.00,Wunderground v.1.15,2013-05-23 04:47:00,
2013-05-23 00:52:00,66.1,59.7,29.41,West,260,17.0,24.0,80,0.00,,,0.00,Wunderground v.1.15,2013-05-23 04:52:00,
2013-05-23 00:56:00,66.3,59.6,29.41,WNW,292,17.0,24.0,79,0.00,,,0.00,Wunderground v.1.15,2013-05-23 04:56:00,
2013-05-23 01:01:00,66.3,59.6,29.40,WSW,256,16.0,17.0,79,0.00,,,0.00,Wunderground v.1.15,2013-05-23 05:01:00,
2013-05-23 01:06:00,66.2,59.5,29.40,West,276,14.0,17.0,79,0.00,,,0.00,Wunderground v.1.15,2013-05-23 05:06:00,
2013-05-23 01:12:00,66.1,59.4,29.40,West,275,13.0,16.0,79,0.00,,,0.00,Wunderground v.1.15,2013-05-23 05:12:00,
2013-05-23 01:17:00,66.2,59.5,29.40,WSW,257,13.0,16.0,79,0.00,,,0.00,Wunderground v.1.15,2013-05-23 05:17:00,
2013-05-23 01:27:00,66.2,59.1,29.41,West,275,13.0,13.0,78,0.00,,,0.00,Wunderground v.1.15,2013-05-23 05:27:00,
2013-05-23 01:32:00,66.2,59.5,29.41,West,271,11.0,11.0,79,0.00,,,0.00,Wunderground v.1.15,2013-05-23 05:32:00,
2013-05-23 01:41:00,66.1,59.4,29.41,West,266,10.0,10.0,79,0.00,,,0.00,Wunderground v.1.15,2013-05-23 05:41:00,
2013-05-23 01:46:00,65.9,59.2,29.40,West,271,7.0,10.0,79,0.00,,,0.00,Wunderground v.1.15,2013-05-23 05:46:00,
2013-05-23 01:52:00,65.7,59.0,29.41,WSW,248,4.0,4.0,79,0.00,,,0.00,Wunderground v.1.15,2013-05-23 05:52:00,
2013-05-23 02:02:00,65.7,59.4,29.40,West,273,7.0,12.0,80,0.00,,,0.00,Wunderground v.1.15,2013-05-23 06:02:00,
2013-05-23 02:07:00,65.7,59.4,29.40,West,259,8.0,12.0,80,0.00,,,0.00,Wunderground v.1.15,2013-05-23 06:07:00,
2013-05-23 02:12:00,65.9,59.6,29.40,West,279,9.0,14.0,80,0.00,,,0.00,Wunderground v.1.15,2013-05-23 06:12:00,
2013-05-23 02:21:00,66.0,59.7,29.40,West,277,10.0,10.0,80,0.00,,,0.00,Wunderground v.1.15,2013-05-23 06:21:00,
2013-05-23 02:26:00,66.0,59.7,29.39,WSW,257,10.0,12.0,80,0.00,,,0.00,Wunderground v.1.15,2013-05-23 06:26:00,
2013-05-23 02:31:00,66.3,59.6,29.40,WSW,242,10.0,10.0,79,0.00,,,0.00,Wunderground v.1.15,2013-05-23 06:31:00,
2013-05-23 02:37:00,66.4,59.7,29.39,WSW,257,10.0,10.0,79,0.00,,,0.00,Wunderground v.1.15,2013-05-23 06:37:00,
2013-05-23 02:42:00,66.4,59.7,29.39,West,275,10.0,10.0,79,0.00,,,0.00,Wunderground v.1.15,2013-05-23 06:42:00,
2013-05-23 02:47:00,66.4,59.3,29.39,WSW,248,10.0,11.0,78,0.00,,,0.00,Wunderground v.1.15,2013-05-23 06:47:00,
2013-05-23 02:52:00,66.3,59.6,29.38,WSW,253,9.0,12.0,79,0.00,,,0.00,Wunderground v.1.15,2013-05-23 06:52:00,
2013-05-23 03:01:00,66.4,59.3,29.38,West,265,9.0,9.0,78,0.00,,,0.00,Wunderground v.1.15,2013-05-23 07:01:00,
2013-05-23 03:06:00,66.4,59.7,29.38,WSW,246,9.0,9.0,79,0.00,,,0.00,Wunderground v.1.15,2013-05-23 07:06:00,
2013-05-23 03:11:00,66.3,59.6,29.38,WSW,255,10.0,12.0,79,0.00,,,0.00,Wunderground v.1.15,2013-05-23 07:11:00,
2013-05-23 03:17:00,66.1,59.7,29.38,WNW,286,10.0,12.0,80,0.00,,,0.00,Wunderground v.1.15,2013-05-23 07:17:00,
2013-05-23 03:22:00,66.1,59.7,29.38,West,264,9.0,9.0,80,0.00,,,0.00,Wunderground v.1.15,2013-05-23 07:22:00,
2013-05-23 03:27:00,66.1,59.4,29.38,West,269,8.0,9.0,79,0.00,,,0.00,Wunderground v.1.15,2013-05-23 07:27:00,
2013-05-23 03:32:00,66.1,59.4,29.38,West,268,7.0,7.0,79,0.00,,,0.00,Wunderground v.1.15,2013-05-23 07:32:00,
2013-05-23 03:42:00,66.2,59.5,29.38,WSW,258,7.0,7.0,79,0.00,,,0.00,Wunderground v.1.15,2013-05-23 07:42:00,
2013-05-23 03:51:00,66.2,59.5,29.38,West,261,5.0,5.0,79,0.00,,,0.00,Wunderground v.1.15,2013-05-23 07:51:00,
2013-05-23 03:57:00,66.2,59.5,29.38,WSW,238,5.0,6.0,79,0.00,,,0.00,Wunderground v.1.15,2013-05-23 07:57:00,
2013-05-23 04:02:00,66.3,59.6,29.39,WSW,250,6.0,8.0,79,0.00,,,0.00,Wunderground v.1.15,2013-05-23 08:02:00,
2013-05-23 04:07:00,66.4,59.7,29.39,WSW,254,6.0,8.0,79,0.00,,,0.00,Wunderground v.1.15,2013-05-23 08:07:00,
2013-05-23 04:12:00,66.5,59.8,29.39,West,269,7.0,7.0,79,0.00,,,0.00,Wunderground v.1.15,2013-05-23 08:12:00,
2013-05-23 04:17:00,66.7,59.6,29.39,WSW,248,7.0,9.0,78,0.00,,,0.00,Wunderground v.1.15,2013-05-23 08:17:00,
2013-05-23 04:26:00,66.8,59.7,29.39,West,269,8.0,9.0,78,0.00,,,0.00,Wunderground v.1.15,2013-05-23 08:26:00,
2013-05-23 04:31:00,66.8,59.7,29.39,WNW,296,7.0,7.0,78,0.00,,,0.00,Wunderground v.1.15,2013-05-23 08:31:00,
2013-05-23 04:37:00,66.7,60.0,29.39,WSW,246,6.0,9.0,79,0.00,,,0.00,Wunderground v.1.15,2013-05-23 08:37:00,
2013-05-23 04:42:00,66.6,59.9,29.39,WNW,292,7.0,7.0,79,0.00,,,0.00,Wunderground v.1.15,2013-05-23 08:42:00,
2013-05-23 04:47:00,66.6,59.9,29.39,WSW,248,7.0,10.0,79,0.00,,,0.00,Wunderground v.1.15,2013-05-23 08:47:00,
2013-05-23 04:52:00,66.6,59.9,29.39,West,265,7.0,9.0,79,0.00,,,0.00,Wunderground v.1.15,2013-05-23 08:52:00,
2013-05-23 04:57:00,66.6,59.9,29.39,WSW,257,8.0,9.0,79,0.00,,,0.00,Wunderground v.1.15,2013-05-23 08:57:00,
2013-05-23 05:06:00,66.6,60.2,29.39,WSW,241,6.0,7.0,80,0.00,,,0.00,Wunderground v.1.15,2013-05-23 09:06:00,
2013-05-23 05:11:00,66.3,60.3,29.39,WSW,250,5.0,7.0,81,0.00,,,0.00,Wunderground v.1.15,2013-05-23 09:11:00,
2013-05-23 05:17:00,66.0,60.0,29.39,WSW,245,5.0,7.0,81,0.00,,,0.00,Wunderground v.1.15,2013-05-23 09:17:00,
2013-05-23 05:22:00,65.6,60.3,29.39,WSW,254,5.0,5.0,83,0.00,,,0.00,Wunderground v.1.15,2013-05-23 09:22:00,
2013-05-23 05:27:00,65.3,60.3,29.39,SW,232,5.0,5.0,84,0.00,,,0.00,Wunderground v.1.15,2013-05-23 09:27:00,
2013-05-23 05:32:00,65.0,60.4,29.39,WSW,254,5.0,6.0,85,0.00,,,0.00,Wunderground v.1.15,2013-05-23 09:32:00,
2013-05-23 05:37:00,64.9,60.3,29.40,WSW,251,5.0,8.0,85,0.00,,,0.00,Wunderground v.1.15,2013-05-23 09:37:00,
2013-05-23 05:46:00,64.7,60.4,29.40,WSW,244,4.0,7.0,86,0.00,,,0.01,Wunderground v.1.15,2013-05-23 09:46:00,
2013-05-23 05:52:00,64.7,60.4,29.40,WSW,251,5.0,5.0,86,0.00,,,0.01,Wunderground v.1.15,2013-05-23 09:52:00,
2013-05-23 05:57:00,64.7,60.4,29.40,WSW,240,5.0,5.0,86,0.00,,,0.01,Wunderground v.1.15,2013-05-23 09:57:00,
2013-05-23 06:02:00,64.7,60.4,29.40,WSW,253,4.0,4.0,86,0.00,,,0.01,Wunderground v.1.15,2013-05-23 10:02:00,
2013-05-23 06:07:00,64.8,60.5,29.41,WSW,257,5.0,5.0,86,0.00,,,0.01,Wunderground v.1.15,2013-05-23 10:07:00,
2013-05-23 06:12:00,64.7,60.4,29.41,WSW,256,5.0,6.0,86,0.00,,,0.01,Wunderground v.1.15,2013-05-23 10:12:00,
2013-05-23 06:17:00,64.5,60.5,29.42,WSW,248,5.0,7.0,87,0.00,,,0.02,Wunderground v.1.15,2013-05-23 10:17:00,
2013-05-23 06:26:00,63.9,60.6,29.42,West,268,6.0,6.0,89,0.00,,,0.02,Wunderground v.1.15,2013-05-23 10:26:00,
2013-05-23 06:31:00,63.6,60.6,29.42,WSW,251,5.0,9.0,90,0.00,,,0.02,Wunderground v.1.15,2013-05-23 10:31:00,
2013-05-23 06:36:00,63.4,60.7,29.42,West,270,6.0,9.0,91,0.00,,,0.02,Wunderground v.1.15,2013-05-23 10:36:00,
2013-05-23 06:42:00,63.1,60.4,29.42,WSW,248,8.0,8.0,91,0.00,,,0.02,Wunderground v.1.15,2013-05-23 10:42:00,
2013-05-23 06:47:00,63.0,60.3,29.42,WSW,255,7.0,8.0,91,0.00,,,0.02,Wunderground v.1.15,2013-05-23 10:47:00,
2013-05-23 06:52:00,62.9,60.5,29.42,West,263,7.0,9.0,92,0.00,,,0.02,Wunderground v.1.15,2013-05-23 10:52:00,
2013-05-23 06:57:00,62.7,60.3,29.42,WSW,257,7.0,9.0,92,0.00,,,0.02,Wunderground v.1.15,2013-05-23 10:57:00,
2013-05-23 07:06:00,62.6,60.5,29.41,WSW,239,8.0,12.0,93,0.00,,,0.02,Wunderground v.1.15,2013-05-23 11:06:00,
2013-05-23 07:16:00,62.5,60.4,29.41,WSW,257,7.0,8.0,93,0.00,,,0.02,Wunderground v.1.15,2013-05-23 11:16:00,
2013-05-23 07:22:00,62.5,60.4,29.41,SW,227,7.0,7.0,93,0.00,,,0.02,Wunderground v.1.15,2013-05-23 11:22:00,
2013-05-23 07:27:00,62.5,60.4,29.40,WSW,251,5.0,7.0,93,0.00,,,0.02,Wunderground v.1.15,2013-05-23 11:27:00,
2013-05-23 07:32:00,62.5,60.4,29.40,West,271,5.0,11.0,93,0.00,,,0.02,Wunderground v.1.15,2013-05-23 11:32:00,
2013-05-23 07:37:00,62.5,60.4,29.40,WSW,252,6.0,11.0,93,0.00,,,0.02,Wunderground v.1.15,2013-05-23 11:37:00,
2013-05-23 07:46:00,62.5,60.4,29.41,West,261,7.0,9.0,93,0.00,,,0.02,Wunderground v.1.15,2013-05-23 11:46:00,
2013-05-23 07:51:00,62.6,60.5,29.42,WNW,287,7.0,7.0,93,0.00,,,0.02,Wunderground v.1.15,2013-05-23 11:51:00,
2013-05-23 07:56:00,62.6,60.5,29.42,West,265,4.0,7.0,93,0.00,,,0.02,Wunderground v.1.15,2013-05-23 11:56:00,
2013-05-23 08:02:00,62.6,60.5,29.42,WSW,253,2.0,5.0,93,0.00,,,0.02,Wunderground v.1.15,2013-05-23 12:02:00,
2013-05-23 08:07:00,62.7,60.6,29.42,West,268,3.0,5.0,93,0.00,,,0.02,Wunderground v.1.15,2013-05-23 12:07:00,
2013-05-23 08:12:00,62.7,60.6,29.43,WNW,284,5.0,12.0,93,0.00,,,0.02,Wunderground v.1.15,2013-05-23 12:12:00,
2013-05-23 08:17:00,62.8,60.7,29.43,WNW,288,7.0,12.0,93,0.00,,,0.02,Wunderground v.1.15,2013-05-23 12:17:00,
2013-05-23 08:22:00,62.8,60.7,29.43,West,261,6.0,6.0,93,0.00,,,0.03,Wunderground v.1.15,2013-05-23 12:22:00,
2013-05-23 08:31:00,62.9,60.8,29.42,West,264,8.0,8.0,93,0.00,,,0.03,Wunderground v.1.15,2013-05-23 12:31:00,
2013-05-23 08:36:00,63.0,60.9,29.42,WNW,297,8.0,8.0,93,0.00,,,0.03,Wunderground v.1.15,2013-05-23 12:36:00,
2013-05-23 08:42:00,63.1,61.0,29.43,WSW,255,7.0,9.0,93,0.00,,,0.03,Wunderground v.1.15,2013-05-23 12:42:00,
2013-05-23 08:47:00,63.2,61.1,29.43,WNW,282,10.0,11.0,93,0.00,,,0.03,Wunderground v.1.15,2013-05-23 12:47:00,
2013-05-23 08:52:00,63.4,61.3,29.43,WSW,252,10.0,10.0,93,0.00,,,0.03,Wunderground v.1.15,2013-05-23 12:52:00,
2013-05-23 08:57:00,63.4,61.3,29.42,West,271,9.0,10.0,93,0.00,,,0.03,Wunderground v.1.15,2013-05-23 12:57:00,
2013-05-23 09:02:00,63.5,61.4,29.43,West,267,8.0,8.0,93,0.00,,,0.03,Wunderground v.1.15,2013-05-23 13:02:00,
2013-05-23 09:11:00,63.8,61.7,29.43,West,269,8.0,8.0,93,0.00,,,0.03,Wunderground v.1.15,2013-05-23 13:11:00,
2013-05-23 09:16:00,63.9,61.8,29.43,WSW,246,9.0,9.0,93,0.00,,,0.03,Wunderground v.1.15,2013-05-23 13:16:00,
2013-05-23 09:22:00,64.1,62.0,29.43,West,265,8.0,8.0,93,0.00,,,0.03,Wunderground v.1.15,2013-05-23 13:22:00,
2013-05-23 09:27:00,64.2,61.8,29.43,WSW,251,7.0,8.0,92,0.00,,,0.03,Wunderground v.1.15,2013-05-23 13:27:00,
2013-05-23 09:32:00,64.5,62.4,29.43,WSW,250,8.0,8.0,93,0.00,,,0.03,Wunderground v.1.15,2013-05-23 13:32:00,
2013-05-23 09:37:00,64.9,62.5,29.43,WSW,246,9.0,11.0,92,0.00,,,0.03,Wunderground v.1.15,2013-05-23 13:37:00,
2013-05-23 09:42:00,65.0,62.6,29.43,WNW,285,8.0,8.0,92,0.00,,,0.03,Wunderground v.1.15,2013-05-23 13:42:00,
2013-05-23 09:51:00,65.7,62.7,29.43,West,269,7.0,8.0,90,0.00,,,0.03,Wunderground v.1.15,2013-05-23 13:51:00,
2013-05-23 09:56:00,66.0,62.3,29.43,West,275,7.0,8.0,88,0.00,,,0.03,Wunderground v.1.15,2013-05-23 13:56:00,
2013-05-23 10:01:00,66.5,62.8,29.43,West,264,7.0,14.0,88,0.00,,,0.03,Wunderground v.1.15,2013-05-23 14:01:00,
2013-05-23 10:07:00,66.8,63.1,29.42,West,263,9.0,14.0,88,0.00,,,0.03,Wunderground v.1.15,2013-05-23 14:07:00,
2013-05-23 10:12:00,66.7,62.4,29.42,WNW,288,11.0,16.0,86,0.00,,,0.03,Wunderground v.1.15,2013-05-23 14:12:00,
2013-05-23 10:17:00,67.2,63.2,29.43,WSW,255,11.0,16.0,87,0.00,,,0.03,Wunderground v.1.15,2013-05-23 14:17:00,
2013-05-23 10:26:00,67.4,62.7,29.43,WSW,242,9.0,10.0,85,0.00,,,0.03,Wunderground v.1.15,2013-05-23 14:26:00,
2013-05-23 10:31:00,67.7,62.7,29.42,West,274,9.0,13.0,84,0.00,,,0.03,Wunderground v.1.15,2013-05-23 14:31:00,
2013-05-23 10:36:00,67.7,62.7,29.42,West,273,9.0,13.0,84,0.00,,,0.03,Wunderground v.1.15,2013-05-23 14:36:00,
2013-05-23 10:42:00,68.0,63.0,29.42,WSW,257,9.0,16.0,84,0.00,,,0.03,Wunderground v.1.15,2013-05-23 14:42:00,
2013-05-23 10:47:00,68.4,63.4,29.42,West,261,9.0,16.0,84,0.00,,,0.03,Wunderground v.1.15,2013-05-23 14:47:00,
2013-05-23 10:52:00,68.6,63.2,29.42,West,261,9.0,18.0,83,0.00,,,0.03,Wunderground v.1.15,2013-05-23 14:52:00,
2013-05-23 10:57:00,68.6,62.5,29.42,WSW,256,9.0,18.0,81,0.00,,,0.03,Wunderground v.1.15,2013-05-23 14:57:00,
2013-05-23 11:06:00,68.8,63.1,29.42,West,262,12.0,13.0,82,0.00,,,0.03,Wunderground v.1.15,2013-05-23 15:06:00,
2013-05-23 11:11:00,68.5,62.8,29.42,WNW,284,11.0,11.0,82,0.00,,,0.03,Wunderground v.1.15,2013-05-23 15:11:00,
2013-05-23 11:16:00,68.4,62.7,29.42,West,269,11.0,12.0,82,0.00,,,0.03,Wunderground v.1.15,2013-05-23 15:16:00,
2013-05-23 11:22:00,68.4,62.7,29.43,West,264,10.0,10.0,82,0.00,,,0.03,Wunderground v.1.15,2013-05-23 15:22:00,
2013-05-23 11:27:00,68.6,62.5,29.43,WSW,245,10.0,10.0,81,0.00,,,0.03,Wunderground v.1.15,2013-05-23 15:27:00,
2013-05-23 11:32:00,68.6,62.5,29.42,WNW,294,10.0,10.0,81,0.00,,,0.03,Wunderground v.1.15,2013-05-23 15:32:00,
2013-05-23 11:37:00,68.3,62.2,29.43,WNW,288,10.0,10.0,81,0.00,,,0.03,Wunderground v.1.15,2013-05-23 15:37:00,
2013-05-23 11:46:00,68.0,62.3,29.43,West,263,9.0,11.0,82,0.00,,,0.03,Wunderground v.1.15,2013-05-23 15:46:00,
2013-05-23 11:51:00,67.9,62.2,29.43,West,267,10.0,10.0,82,0.00,,,0.03,Wunderground v.1.15,2013-05-23 15:51:00,
2013-05-23 11:56:00,68.0,62.3,29.43,West,275,8.0,10.0,82,0.00,,,0.03,Wunderground v.1.15,2013-05-23 15:56:00,
2013-05-23 12:02:00,68.1,62.4,29.43,West,268,8.0,10.0,82,0.00,,,0.03,Wunderground v.1.15,2013-05-23 16:02:00,
2013-05-23 12:07:00,68.1,62.7,29.43,West,259,8.0,10.0,83,0.00,,,0.03,Wunderground v.1.15,2013-05-23 16:07:00,
2013-05-23 12:12:00,68.0,62.3,29.42,West,271,9.0,10.0,82,0.00,,,0.03,Wunderground v.1.15,2013-05-23 16:12:00,
2013-05-23 12:17:00,67.8,62.1,29.42,West,272,10.0,10.0,82,0.00,,,0.03,Wunderground v.1.15,2013-05-23 16:17:00,
2013-05-23 12:22:00,67.8,62.4,29.42,West,265,10.0,11.0,83,0.00,,,0.03,Wunderground v.1.15,2013-05-23 16:22:00,
2013-05-23 12:31:00,67.6,62.6,29.42,West,269,11.0,11.0,84,0.00,,,0.03,Wunderground v.1.15,2013-05-23 16:31:00,
2013-05-23 12:36:00,67.5,62.5,29.41,NW,312,10.0,11.0,84,0.00,,,0.03,Wunderground v.1.15,2013-05-23 16:36:00,
2013-05-23 12:42:00,67.4,62.4,29.42,West,265,9.0,9.0,84,0.00,,,0.03,Wunderground v.1.15,2013-05-23 16:42:00,
2013-05-23 12:47:00,67.3,62.3,29.42,West,272,9.0,14.0,84,0.00,,,0.03,Wunderground v.1.15,2013-05-23 16:47:00,
2013-05-23 12:52:00,66.9,62.2,29.42,West,274,12.0,12.0,85,0.00,,,0.03,Wunderground v.1.15,2013-05-23 16:52:00,
2013-05-23 12:57:00,66.9,62.6,29.42,West,269,12.0,12.0,86,0.00,,,0.03,Wunderground v.1.15,2013-05-23 16:57:00,
2013-05-23 13:02:00,66.9,62.6,29.42,WSW,257,10.0,10.0,86,0.00,,,0.03,Wunderground v.1.15,2013-05-23 17:02:00,
2013-05-23 13:11:00,67.1,63.1,29.41,WNW,284,11.0,11.0,87,0.00,,,0.03,Wunderground v.1.15,2013-05-23 17:11:00,
2013-05-23 13:17:00,67.3,63.3,29.41,WSW,258,11.0,12.0,87,0.00,,,0.03,Wunderground v.1.15,2013-05-23 17:17:00,
2013-05-23 13:22:00,67.4,63.1,29.41,WSW,257,11.0,16.0,86,0.00,,,0.03,Wunderground v.1.15,2013-05-23 17:22:00,
2013-05-23 13:27:00,67.6,63.6,29.41,West,272,11.0,16.0,87,0.00,,,0.03,Wunderground v.1.15,2013-05-23 17:27:00,
2013-05-23 13:32:00,67.8,62.8,29.41,WSW,257,10.0,11.0,84,0.00,,,0.03,Wunderground v.1.15,2013-05-23 17:32:00,
2013-05-23 13:37:00,68.0,63.3,29.40,West,270,10.0,16.0,85,0.00,,,0.03,Wunderground v.1.15,2013-05-23 17:37:00,
2013-05-23 13:46:00,68.6,63.2,29.40,WSW,248,12.0,15.0,83,0.00,,,0.03,Wunderground v.1.15,2013-05-23 17:46:00,
2013-05-23 13:51:00,68.6,63.6,29.40,West,267,11.0,11.0,84,0.00,,,0.03,Wunderground v.1.15,2013-05-23 17:51:00,
2013-05-23 13:57:00,69.3,64.3,29.39,WNW,300,10.0,11.0,84,0.00,,,0.03,Wunderground v.1.15,2013-05-23 17:57:00,
2013-05-23 14:02:00,69.6,63.9,29.39,West,259,11.0,13.0,82,0.00,,,0.03,Wunderground v.1.15,2013-05-23 18:02:00,
2013-05-23 14:07:00,69.7,64.3,29.39,WSW,250,11.0,14.0,83,0.00,,,0.03,Wunderground v.1.15,2013-05-23 18:07:00,
2013-05-23 14:12:00,69.9,64.5,29.39,West,281,13.0,14.0,83,0.00,,,0.03,Wunderground v.1.15,2013-05-23 18:12:00,
2013-05-23 14:17:00,69.9,64.2,29.39,WSW,255,14.0,17.0,82,0.00,,,0.03,Wunderground v.1.15,2013-05-23 18:17:00,
2013-05-23 14:26:00,70.3,64.5,29.38,WSW,240,11.0,12.0,82,0.00,,,0.03,Wunderground v.1.15,2013-05-23 18:26:00,
2013-05-23 14:32:00,70.6,64.5,29.38,WSW,257,12.0,12.0,81,0.00,,,0.03,Wunderground v.1.15,2013-05-23 18:32:00,
2013-05-23 14:37:00,70.4,63.9,29.37,WNW,286,12.0,12.0,80,0.00,,,0.03,Wunderground v.1.15,2013-05-23 18:37:00,
2013-05-23 14:42:00,70.4,64.3,29.37,West,274,13.0,13.0,81,0.00,,,0.03,Wunderground v.1.15,2013-05-23 18:42:00,
2013-05-23 14:47:00,70.7,63.5,29.37,WSW,257,14.0,17.0,78,0.00,,,0.03,Wunderground v.1.15,2013-05-23 18:47:00,
2013-05-23 14:52:00,70.8,63.6,29.36,West,268,13.0,13.0,78,0.00,,,0.03,Wunderground v.1.15,2013-05-23 18:52:00,
2013-05-23 15:01:00,71.7,64.5,29.36,West,263,12.0,15.0,78,0.00,,,0.03,Wunderground v.1.15,2013-05-23 19:01:00,
2013-05-23 15:06:00,71.7,64.1,29.36,West,279,10.0,15.0,77,0.00,,,0.03,Wunderground v.1.15,2013-05-23 19:06:00,
2013-05-23 15:12:00,71.5,63.5,29.36,West,265,9.0,9.0,76,0.00,,,0.03,Wunderground v.1.15,2013-05-23 19:12:00,
2013-05-23 15:17:00,72.0,65.1,29.36,West,265,9.0,12.0,79,0.00,,,0.03,Wunderground v.1.15,2013-05-23 19:17:00,
2013-05-23 15:22:00,72.2,65.3,29.35,West,269,10.0,12.0,79,0.00,,,0.03,Wunderground v.1.15,2013-05-23 19:22:00,
2013-05-23 15:27:00,72.3,64.3,29.35,West,264,9.0,12.0,76,0.00,,,0.03,Wunderground v.1.15,2013-05-23 19:27:00,
2013-05-23 15:32:00,72.5,64.5,29.35,WSW,248,8.0,11.0,76,0.00,,,0.03,Wunderground v.1.15,2013-05-23 19:32:00,
2013-05-23 15:41:00,72.5,63.7,29.35,West,275,7.0,7.0,74,0.00,,,0.03,Wunderground v.1.15,2013-05-23 19:41:00,
2013-05-23 15:46:00,72.8,64.4,29.35,WSW,258,7.0,9.0,75,0.00,,,0.03,Wunderground v.1.15,2013-05-23 19:46:00,
2013-05-23 15:52:00,72.5,63.7,29.34,SW,236,8.0,13.0,74,0.00,,,0.03,Wunderground v.1.15,2013-05-23 19:52:00,
2013-05-23 15:57:00,72.2,62.7,29.35,West,275,8.0,13.0,72,0.00,,,0.03,Wunderground v.1.15,2013-05-23 19:57:00,
2013-05-23 16:02:00,72.0,63.3,29.34,WSW,258,8.0,9.0,74,0.00,,,0.03,Wunderground v.1.15,2013-05-23 20:02:00,
2013-05-23 16:11:00,69.3,60.7,29.36,SW,232,4.0,4.0,74,0.00,,,0.03,Wunderground v.1.15,2013-05-23 20:11:00,
2013-05-23 16:16:00,67.3,60.6,29.36,WSW,240,3.0,4.0,79,0.46,,,0.06,Wunderground v.1.15,2013-05-23 20:16:00,
2013-05-23 16:22:00,65.8,60.8,29.36,East,94,1.0,1.0,84,0.96,,,0.15,Wunderground v.1.15,2013-05-23 20:22:00,
2013-05-23 16:26:00,64.9,60.6,29.36,East,94,0.0,4.0,86,0.14,,,0.16,Wunderground v.1.15,2013-05-23 20:26:00,
2013-05-23 16:32:00,64.3,60.7,29.36,East,94,0.0,4.0,88,0.20,,,0.18,Wunderground v.1.15,2013-05-23 20:32:00,
2013-05-23 16:37:00,63.8,60.2,29.36,East,94,0.0,4.0,88,0.16,,,0.20,Wunderground v.1.15,2013-05-23 20:37:00,
2013-05-23 16:42:00,63.5,60.2,29.36,East,94,0.0,4.0,89,0.78,,,0.24,Wunderground v.1.15,2013-05-23 20:42:00,
2013-05-23 16:51:00,63.1,60.1,29.36,ESE,109,0.0,4.0,90,0.59,,,0.29,Wunderground v.1.15,2013-05-23 20:51:00,
2013-05-23 16:56:00,62.9,60.2,29.36,ESE,109,0.0,4.0,91,0.10,,,0.29,Wunderground v.1.15,2013-05-23 20:56:00,
2013-05-23 17:01:00,62.9,60.2,29.35,ESE,109,0.0,4.0,91,0.05,,,0.29,Wunderground v.1.15,2013-05-23 21:01:00,
2013-05-23 17:07:00,62.9,60.5,29.35,ESE,111,0.0,4.0,92,0.04,,,0.29,Wunderground v.1.15,2013-05-23 21:07:00,
2013-05-23 17:12:00,63.0,60.6,29.36,ESE,111,0.0,4.0,92,0.00,,,0.29,Wunderground v.1.15,2013-05-23 21:12:00,
2013-05-23 17:17:00,63.0,60.6,29.36,ESE,111,0.0,4.0,92,0.00,,,0.30,Wunderground v.1.15,2013-05-23 21:17:00,
2013-05-23 17:22:00,63.0,60.6,29.36,ESE,111,0.0,4.0,92,0.00,,,0.30,Wunderground v.1.15,2013-05-23 21:22:00,
2013-05-23 17:31:00,63.2,61.1,29.37,WSW,256,2.0,4.0,93,0.00,,,0.30,Wunderground v.1.15,2013-05-23 21:31:00,
2013-05-23 17:36:00,63.2,61.1,29.38,WSW,254,2.0,4.0,93,0.00,,,0.30,Wunderground v.1.15,2013-05-23 21:36:00,
2013-05-23 17:41:00,63.1,61.0,29.38,WSW,254,1.0,4.0,93,0.00,,,0.31,Wunderground v.1.15,2013-05-23 21:41:00,
2013-05-23 17:47:00,63.1,61.0,29.38,WSW,254,1.0,4.0,93,0.00,,,0.31,Wunderground v.1.15,2013-05-23 21:47:00,
2013-05-23 17:52:00,63.1,61.0,29.37,WSW,254,1.0,4.0,93,0.00,,,0.31,Wunderground v.1.15,2013-05-23 21:52:00,
2013-05-23 17:57:00,63.1,61.0,29.38,WSW,254,1.0,4.0,93,0.05,,,0.32,Wunderground v.1.15,2013-05-23 21:57:00,
2013-05-23 18:02:00,63.0,60.9,29.38,WSW,254,1.0,4.0,93,0.08,,,0.33,Wunderground v.1.15,2013-05-23 22:02:00,
2013-05-23 18:11:00,62.9,61.1,29.38,WSW,254,1.0,4.0,94,0.05,,,0.33,Wunderground v.1.15,2013-05-23 22:11:00,
2013-05-23 18:16:00,62.7,60.9,29.38,WSW,254,1.0,4.0,94,0.00,,,0.33,Wunderground v.1.15,2013-05-23 22:16:00,
2013-05-23 18:21:00,62.7,60.9,29.38,WSW,254,1.0,1.0,94,0.00,,,0.33,Wunderground v.1.15,2013-05-23 22:21:00,
2013-05-23 18:27:00,62.6,60.8,29.38,WSW,254,1.0,4.0,94,0.00,,,0.33,Wunderground v.1.15,2013-05-23 22:27:00,
2013-05-23 18:32:00,62.5,60.7,29.38,WSW,254,3.0,4.0,94,0.00,,,0.33,Wunderground v.1.15,2013-05-23 22:32:00,
2013-05-23 18:37:00,62.5,60.7,29.38,WSW,254,3.0,4.0,94,0.00,,,0.33,Wunderground v.1.15,2013-05-23 22:37:00,
2013-05-23 18:42:00,62.4,60.7,29.38,WSW,254,2.0,2.0,94,0.00,,,0.33,Wunderground v.1.15,2013-05-23 22:42:00,
2013-05-23 18:47:00,62.4,60.7,29.38,WSW,254,1.0,4.0,94,0.00,,,0.33,Wunderground v.1.15,2013-05-23 22:47:00,
2013-05-23 18:56:00,62.2,60.8,29.39,WSW,254,1.0,4.0,95,0.00,,,0.33,Wunderground v.1.15,2013-05-23 22:56:00,
2013-05-23 19:01:00,62.2,60.8,29.39,WSW,254,1.0,1.0,95,0.00,,,0.33,Wunderground v.1.15,2013-05-23 23:01:00,
2013-05-23 19:07:00,62.2,60.8,29.39,WSW,254,0.0,3.0,95,0.00,,,0.33,Wunderground v.1.15,2013-05-23 23:07:00,
2013-05-23 19:12:00,62.2,60.8,29.40,WSW,254,1.0,4.0,95,0.00,,,0.34,Wunderground v.1.15,2013-05-23 23:12:00,
2013-05-23 19:17:00,62.1,60.7,29.40,WSW,254,1.0,4.0,95,0.00,,,0.34,Wunderground v.1.15,2013-05-23 23:17:00,
2013-05-23 19:22:00,62.1,60.7,29.40,WSW,254,1.0,1.0,95,0.00,,,0.34,Wunderground v.1.15,2013-05-23 23:22:00,
2013-05-23 19:27:00,62.1,60.7,29.40,WSW,254,1.0,4.0,95,0.00,,,0.34,Wunderground v.1.15,2013-05-23 23:27:00,
2013-05-23 19:36:00,61.8,60.4,29.40,WSW,254,0.0,4.0,95,0.00,,,0.34,Wunderground v.1.15,2013-05-23 23:36:00,
2013-05-23 19:42:00,61.7,60.3,29.40,WSW,254,0.0,4.0,95,0.00,,,0.35,Wunderground v.1.15,2013-05-23 23:42:00,
2013-05-23 19:47:00,61.6,60.2,29.40,WSW,254,0.0,4.0,95,0.00,,,0.35,Wunderground v.1.15,2013-05-23 23:47:00,
2013-05-23 19:52:00,61.6,60.4,29.41,WSW,254,0.0,4.0,96,0.00,,,0.35,Wunderground v.1.15,2013-05-23 23:52:00,
2013-05-23 19:57:00,61.5,60.1,29.41,WSW,254,0.0,4.0,95,0.00,,,0.35,Wunderground v.1.15,2013-05-23 23:57:00,
2013-05-23 20:02:00,61.5,60.3,29.41,WSW,254,1.0,4.0,96,0.00,,,0.35,Wunderground v.1.15,2013-05-24 00:02:00,
2013-05-23 20:11:00,61.4,60.2,29.41,WSW,254,1.0,4.0,96,0.00,,,0.36,Wunderground v.1.15,2013-05-24 00:11:00,
2013-05-23 20:16:00,61.4,60.2,29.41,WSW,254,1.0,4.0,96,0.00,,,0.36,Wunderground v.1.15,2013-05-24 00:16:00,
2013-05-23 20:22:00,61.4,60.2,29.41,WSW,254,0.0,4.0,96,0.00,,,0.36,Wunderground v.1.15,2013-05-24 00:22:00,
2013-05-23 20:27:00,61.4,60.2,29.41,WSW,254,0.0,4.0,96,0.00,,,0.36,Wunderground v.1.15,2013-05-24 00:27:00,
2013-05-23 20:32:00,61.3,60.2,29.41,WSW,254,0.0,4.0,96,0.00,,,0.36,Wunderground v.1.15,2013-05-24 00:32:00,
2013-05-23 20:37:00,61.2,60.1,29.40,WSW,254,0.0,4.0,96,0.00,,,0.36,Wunderground v.1.15,2013-05-24 00:37:00,
2013-05-23 20:42:00,61.1,60.0,29.40,WSW,254,0.0,4.0,96,0.00,,,0.36,Wunderground v.1.15,2013-05-24 00:42:00,
2013-05-23 20:51:00,61.1,60.0,29.40,WSW,254,0.0,4.0,96,0.00,,,0.36,Wunderground v.1.15,2013-05-24 00:51:00,
2013-05-23 20:56:00,61.1,60.0,29.40,WSW,254,0.0,4.0,96,0.00,,,0.36,Wunderground v.1.15,2013-05-24 00:56:00,
2013-05-23 21:01:00,61.0,59.9,29.40,WSW,254,0.0,4.0,96,0.00,,,0.36,Wunderground v.1.15,2013-05-24 01:01:00,
2013-05-23 21:07:00,60.9,59.8,29.40,WSW,254,0.0,4.0,96,0.00,,,0.36,Wunderground v.1.15,2013-05-24 01:07:00,
2013-05-23 21:12:00,60.9,59.8,29.40,WSW,254,0.0,4.0,96,0.00,,,0.36,Wunderground v.1.15,2013-05-24 01:12:00,
2013-05-23 21:17:00,60.8,59.9,29.40,WSW,254,0.0,4.0,97,0.00,,,0.36,Wunderground v.1.15,2013-05-24 01:17:00,
2013-05-23 21:26:00,60.7,59.8,29.40,WSW,254,0.0,4.0,97,0.00,,,0.36,Wunderground v.1.15,2013-05-24 01:26:00,
2013-05-23 21:31:00,60.7,59.8,29.40,WSW,254,0.0,4.0,97,0.00,,,0.36,Wunderground v.1.15,2013-05-24 01:31:00,
2013-05-23 21:36:00,60.6,59.7,29.40,WSW,254,0.0,4.0,97,0.00,,,0.36,Wunderground v.1.15,2013-05-24 01:36:00,
2013-05-23 21:41:00,60.6,59.7,29.40,WSW,254,0.0,4.0,97,0.00,,,0.36,Wunderground v.1.15,2013-05-24 01:41:00,
2013-05-23 21:47:00,60.6,59.7,29.40,WSW,254,0.0,4.0,97,0.00,,,0.36,Wunderground v.1.15,2013-05-24 01:47:00,
2013-05-23 21:52:00,60.6,59.7,29.40,WSW,254,0.0,4.0,97,0.00,,,0.36,Wunderground v.1.15,2013-05-24 01:52:00,
2013-05-23 21:57:00,60.7,59.8,29.40,WSW,254,0.0,4.0,97,0.00,,,0.36,Wunderground v.1.15,2013-05-24 01:57:00,
2013-05-23 22:06:00,60.7,59.8,29.39,WSW,254,0.0,4.0,97,0.00,,,0.36,Wunderground v.1.15,2013-05-24 02:06:00,
2013-05-23 22:11:00,60.6,59.7,29.39,WSW,254,0.0,4.0,97,0.00,,,0.36,Wunderground v.1.15,2013-05-24 02:11:00,
2013-05-23 22:16:00,60.5,59.6,29.39,WSW,254,0.0,4.0,97,0.00,,,0.36,Wunderground v.1.15,2013-05-24 02:16:00,
2013-05-23 22:21:00,60.4,59.5,29.39,WSW,254,0.0,4.0,97,0.00,,,0.36,Wunderground v.1.15,2013-05-24 02:21:00,
2013-05-23 22:27:00,60.4,59.5,29.39,WSW,254,0.0,4.0,97,0.00,,,0.36,Wunderground v.1.15,2013-05-24 02:27:00,
2013-05-23 22:32:00,60.4,59.5,29.39,WSW,254,0.0,4.0,97,0.00,,,0.36,Wunderground v.1.15,2013-05-24 02:32:00,
2013-05-23 22:37:00,60.4,59.5,29.39,WSW,254,0.0,4.0,97,0.00,,,0.36,Wunderground v.1.15,2013-05-24 02:37:00,
2013-05-23 22:47:00,60.5,59.6,29.39,WSW,254,0.0,4.0,97,0.00,,,0.36,Wunderground v.1.15,2013-05-24 02:47:00,
2013-05-23 22:56:00,60.4,59.5,29.40,WSW,254,0.0,4.0,97,0.00,,,0.37,Wunderground v.1.15,2013-05-24 02:56:00,
2013-05-23 23:01:00,60.3,59.4,29.39,WSW,254,1.0,1.0,97,0.18,,,0.39,Wunderground v.1.15,2013-05-24 03:01:00,
2013-05-23 23:07:00,60.4,59.5,29.39,WSW,254,0.0,4.0,97,0.07,,,0.39,Wunderground v.1.15,2013-05-24 03:07:00,
2013-05-23 23:12:00,60.3,59.4,29.39,WSW,254,0.0,4.0,97,0.04,,,0.39,Wunderground v.1.15,2013-05-24 03:12:00,
2013-05-23 23:17:00,60.3,59.4,29.39,WSW,254,0.0,4.0,97,0.00,,,0.39,Wunderground v.1.15,2013-05-24 03:17:00,
2013-05-23 23:22:00,60.3,59.4,29.39,WSW,254,0.0,4.0,97,0.00,,,0.39,Wunderground v.1.15,2013-05-24 03:22:00,
2013-05-23 23:27:00,60.2,59.3,29.39,WSW,254,0.0,4.0,97,0.00,,,0.39,Wunderground v.1.15,2013-05-24 03:27:00,
2013-05-23 23:36:00,60.2,59.3,29.38,WSW,254,0.0,4.0,97,0.00,,,0.39,Wunderground v.1.15,2013-05-24 03:36:00,
2013-05-23 23:42:00,60.2,59.3,29.38,WSW,254,0.0,4.0,97,0.00,,,0.39,Wunderground v.1.15,2013-05-24 03:42:00,
2013-05-23 23:47:00,60.2,59.3,29.38,WSW,254,0.0,4.0,97,0.00,,,0.39,Wunderground v.1.15,2013-05-24 03:47:00,
2013-05-23 23:52:00,60.2,59.3,29.38,WSW,254,0.0,4.0,97,0.00,,,0.39,Wunderground v.1.15,2013-05-24 03:52:00,
2013-05-23 23:57:00,60.2,59.3,29.38,WSW,254,0.0,4.0,97,0.00,,,0.39,Wunderground v.1.15,2013-05-24 03:57:00,